User: anonymous   Login
Location: Unspecified
(0.0000°N, 0.0000°E)
Time: 07:43:15
(UTC+00:00)
Language:

USA 103 - Orbit

View from above orbital plane
View from above orbital plane
View from above satellite
View from above satellite

Ground track
Ground track

The orbit data is extracted from the following two-line orbital elements,

1 23097U 94026A   18191.53069591 0.00000000  00000-0  00000-0 0    03
2 23097  64.0526 101.9753 6674901 261.4134  23.5871  2.00594012    05
Epoch (UTC): 10 July 2018 12:44:12
Eccentricity: 0.6674901
inclination: 64.0526°
perigee height: 2452 km
apogee height: 37906 km
right ascension of ascending node: 101.9753°
argument of perigee: 261.4134°
revolutions per day: 2.00594012
mean anomaly at epoch: 23.5871°
orbit number at epoch: 0

The dashed part of the orbit path shows where the satellite is in the earth's shadow,  

DLR